Hourly Weather Roundup
Issued by NWS Central Illinois

Home | Current Version | Previous Version | Graphics & Text | Print | Product List | Glossary On
Versions: 1 2 3 4 5 6 7 8 9 10 11 12 13 14 15 16 17 18 19 20 21 22 23 24 25 26 27 28 29 30 31 32 33 34 35 36 37 38 39 40 41 42 43 44 45 46 47 48 49 50
000
NZUS43 KILX 250610
HWRILX

AREA WEATHER ROUNDUP
NATIONAL WEATHER SERVICE, LINCOLN IL
1200 AM CST THU DEC 25 2014


CITY           SKY/WX    TMP DP  RH WIND       PRES   REMARKS
BLOOMINGTON    CLOUDY    36  32  85 W13       29.76R WCI  27
6HR MIN TEMP:  35; 6HR MAX TEMP:  37; 6HR PCP: TRACE;

CHAMPAIGN      CLOUDY    36  33  89 W18       29.77R WCI  26
6HR MIN TEMP:  36; 6HR MAX TEMP:  37; 6HR PCP: TRACE;

DECATUR        CLOUDY    37  32  82 W10       29.80R WCI  30
6HR MIN TEMP:  37; 6HR MAX TEMP:  37;

FLORA          PTCLDY    38  34  86 W9        29.86R WCI  31
6HR MIN TEMP:  37; 6HR MAX TEMP:  38;

GALESBURG      CLOUDY    34  31  88 W10       29.76S WCI  26
JACKSONVILLE   CLOUDY    38  32  80 W10       29.82S WCI  30
6HR MIN TEMP:  37; 6HR MAX TEMP:  39;

LACON          CLOUDY    35  30  83 W10G16    29.75R WCI  27
6HR MIN TEMP:  35; 6HR MAX TEMP:  37;

LAWRENCEVILLE  CLOUDY    38  35  89 W14       29.84R WCI  30
6HR MIN TEMP:  38; 6HR MAX TEMP:  40; 6HR PCP:  0.01;

LITCHFIELD     CLOUDY    35  32  90 W13       29.84R WCI  26
$$


CITY           SKY/WX    TMP DP  RH WIND       PRES   REMARKS
LINCOLN        CLOUDY    38  31  77 W7G17     29.79R WCI  32
6HR MIN TEMP:  37; 6HR MAX TEMP:  38;

MACOMB         CLOUDY    35  31  87 W12G17    29.81R WCI  26
MATTOON        LGT RAIN  36  33  89 W9        29.80R WCI  29
6HR MIN TEMP:  36; 6HR MAX TEMP:  37; 6HR PCP: TRACE;

MT CARMEL AP   CLOUDY    41  34  75 W13       29.84R WCI  34
OLNEY-NOBLE AP CLOUDY    36  34  93 W9        29.85R WCI  29
PARIS          CLOUDY    37  35  96 W16       29.79R WCI  27
6HR MIN TEMP:  36; 6HR MAX TEMP:  37;

PEORIA         CLOUDY    37  28  70 W14G20    29.78R WCI  28
6HR MIN TEMP:  37; 6HR MAX TEMP:  38;

PONTIAC        CLOUDY    37  34  90 W17       29.73R WCI  27
RANTOUL        LGT RAIN  37  36  93 W15       29.75R WCI  28
6HR MIN TEMP:  37; 6HR MAX TEMP:  38;

ROBINSON       CLOUDY    37  35  92 W17       29.84R WCI  28
6HR MIN TEMP:  37; 6HR MAX TEMP:  39;

SPRINGFIELD    CLOUDY    37  31  78 W13       29.81R WCI  29
6HR MIN TEMP:  37; 6HR MAX TEMP:  38; 6HR PCP: TRACE;

TAYLORVILLE    CLOUDY    36  32  87 W12       29.82R WCI  27
$$

...REGIONAL REPORTS...


CITY           SKY/WX    TMP DP  RH WIND       PRES   REMARKS
CHICAGO O`HARE CLOUDY    36  31  82 W15       29.63R WCI  27
KANKAKEE       CLOUDY    36  33  90 W12       29.70R WCI  28
MOLINE         CLOUDY    35  29  78 W12       29.74R WCI  27
MOUNT VERNON   CLOUDY    37  30  75 SW9       29.88R WCI  31
PITTSFIELD     CLOUDY    37  31  81 W9        29.84R WCI  30
QUINCY         CLOUDY    35  29  78 W9        29.82R WCI  28
ROCKFORD       CLOUDY    36  31  82 W13       29.68R WCI  27
$$


CITY           SKY/WX    TMP DP  RH WIND       PRES   REMARKS
BURLINGTON     CLOUDY    35  29  78 W10       29.77S WCI  27
CEDAR RAPIDS   CLOUDY    32  29  88 W13       29.72R WCI  22
DES MOINES     CLOUDY    32  27  81 SW16      29.74S WCI  21
KIRKSVILLE     CLOUDY    33  30  88 SW8       29.81R WCI  26
OTTUMWA        CLOUDY    32  29  88 SW17      29.76S WCI  21
ST LOUIS       CLOUDY    37  34  87 W5        29.87R WCI  34
$$


CITY           SKY/WX    TMP DP  RH WIND       PRES   REMARKS
TERRE HAUTE    CLOUDY    37  34  89 W12       29.79R WCI  29
EVANSVILLE     CLOUDY    40  35  83 W9        29.88R WCI  34
INDIANAPOLIS   LGT RAIN  34  33  96 W16       29.73R WCI  24
LAFAYETTE      CLOUDY    36  33  89 W15       29.72R WCI  27
MADISON        CLOUDY    34  30  85 W8        29.61R WCI  27
MILWAUKEE      CLOUDY    36  29  75 W12       29.59R WCI  28
$$





USA.gov is the U.S. government's official web portal to all federal, state and local government web resources and services.